| time (UTC) | temp F | wind direction | speed knots | gust knots | rain 1hr in | rain 24hr in | rain mn in | humidity % | barometer mb |
| 20260505065904 | 61 | 276 | 0.9 | 2.6 | 0.00 | 0.06 | 0.00 | 78 | 1022.2 |
| 20260505065405 | 61 | 273 | 2.6 | 6.1 | 0.00 | 0.06 | 0.00 | 78 | 1022.2 |
| 20260505064905 | 61 | 263 | 1.7 | 4.3 | 0.00 | 0.06 | 0.00 | 78 | 1022.2 |
| 20260505064404 | 61 | 280 | 2.6 | 4.3 | 0.00 | 0.06 | 0.00 | 79 | 1022.2 |
| 20260505063904 | 61 | 287 | 2.6 | 5.2 | 0.00 | 0.06 | 0.00 | 79 | 1022.2 |
| 20260505063404 | 61 | 301 | 4.3 | 6.1 | 0.00 | 0.06 | 0.00 | 78 | 1022.1 |
| 20260505062904 | 61 | 288 | 1.7 | 5.2 | 0.00 | 0.06 | 0.00 | 78 | 1022.1 |
| 20260505062404 | 61 | 285 | 4.3 | 6.1 | 0.00 | 0.06 | 0.00 | 78 | 1022.1 |
| 20260505061904 | 61 | 273 | 2.6 | 6.1 | 0.00 | 0.06 | 0.00 | 78 | 1022.1 |
| 20260505061404 | 61 | 293 | 3.5 | 7.8 | 0.00 | 0.07 | 0.00 | 77 | 1022.1 |
| 20260505060905 | 61 | 263 | 2.6 | 7.0 | 0.00 | 0.07 | 0.00 | 78 | 1022.1 |
| 20260505060405 | 61 | 273 | 3.5 | 7.0 | 0.00 | 0.08 | 0.00 | 77 | 1022.1 |
| 20260505055904 | 61 | 257 | 3.5 | 7.8 | 0.00 | 0.09 | 0.00 | 77 | 1022.1 |
| 20260505055404 | 61 | 258 | 4.3 | 7.0 | 0.00 | 0.09 | 0.00 | 78 | 1022.1 |
| 20260505054905 | 61 | 260 | 2.6 | 7.0 | 0.00 | 0.09 | 0.00 | 77 | 1022.1 |
| 20260505054404 | 61 | 267 | 4.3 | 7.8 | 0.00 | 0.09 | 0.00 | 77 | 1022.1 |
| 20260505053905 | 61 | 255 | 4.3 | 7.0 | 0.00 | 0.09 | 0.00 | 77 | 1022.0 |
| 20260505053405 | 61 | 287 | 5.2 | 7.8 | 0.00 | 0.09 | 0.00 | 78 | 1022.0 |
| 20260505052904 | 61 | 255 | 3.5 | 6.1 | 0.00 | 0.09 | 0.00 | 80 | 1021.9 |
| 20260505052405 | 60 | 247 | 1.7 | 5.2 | 0.00 | 0.17 | 0.00 | 79 | 1021.9 |
| 20260505051904 | 60 | 233 | 1.7 | 4.3 | 0.00 | 0.18 | 0.00 | 79 | 1021.9 |
| 20260505051404 | 60 | 261 | 2.6 | 7.8 | 0.00 | 0.18 | 0.00 | 79 | 1021.9 |
| 20260505050905 | 61 | 249 | 1.7 | 4.3 | 0.00 | 0.18 | 0.00 | 79 | 1021.8 |
| 20260505050404 | 60 | 255 | 1.7 | 4.3 | 0.00 | 0.18 | 0.00 | 79 | 1021.8 |
| 20260505041405 | 61 | 300 | 7.0 | 10.4 | 0.00 | 0.18 | 0.00 | 75 | 1021.6 |
| 20260505040904 | 61 | 272 | 2.6 | 7.0 | 0.00 | 0.18 | 0.00 | 74 | 1021.6 |
| 20260505040404 | 62 | 291 | 7.0 | 11.3 | 0.00 | 0.18 | 0.00 | 74 | 1021.6 |
| 20260505035905 | 62 | 296 | 6.1 | 10.4 | 0.00 | 0.18 | 0.00 | 74 | 1021.6 |
| 20260505035404 | 62 | 320 | 5.2 | 10.4 | 0.00 | 0.18 | 0.00 | 73 | 1021.6 |
| 20260505034904 | 62 | 343 | 7.0 | 10.4 | 0.00 | 0.18 | 0.00 | 73 | 1021.7 |
| 20260505034404 | 62 | 344 | 5.2 | 7.0 | 0.00 | 0.18 | 0.00 | 74 | 1021.8 |
| 20260505033904 | 62 | 271 | 4.3 | 7.0 | 0.00 | 0.18 | 0.00 | 76 | 1021.8 |
| 20260505033404 | 61 | 284 | 6.1 | 8.7 | 0.00 | 0.18 | 0.00 | 78 | 1021.9 |
| 20260505032904 | 61 | 295 | 4.3 | 7.0 | 0.00 | 0.18 | 0.00 | 76 | 1021.9 |
| 20260505032404 | 60 | 287 | 4.3 | 8.7 | 0.00 | 0.18 | 0.00 | 76 | 1022.0 |
| 20260505031904 | 60 | 270 | 4.3 | 7.0 | 0.00 | 0.18 | 0.00 | 77 | 1022.0 |
| 20260505031404 | 60 | 293 | 7.0 | 8.7 | 0.00 | 0.18 | 0.00 | 76 | 1022.0 |
| 20260505030904 | 60 | 282 | 4.3 | 7.8 | 0.00 | 0.18 | 0.00 | 76 | 1022.0 |
| 20260505030404 | 60 | 269 | 6.1 | 8.7 | 0.00 | 0.18 | 0.00 | 78 | 1022.1 |
| 20260505025904 | 60 | 274 | 5.2 | 7.8 | 0.00 | 0.18 | 0.00 | 77 | 1022.2 |
| 20260505025404 | 60 | 277 | 5.2 | 7.8 | 0.00 | 0.18 | 0.00 | 77 | 1022.2 |
| 20260505024904 | 60 | 269 | 4.3 | 7.0 | 0.00 | 0.18 | 0.00 | 78 | 1022.3 |
| 20260505024404 | 60 | 250 | 5.2 | 10.4 | 0.00 | 0.18 | 0.00 | 77 | 1022.3 |
| 20260505023904 | 60 | 266 | 5.2 | 12.2 | 0.00 | 0.19 | 0.00 | 78 | 1022.4 |
| 20260505023404 | 60 | 261 | 4.3 | 7.8 | 0.00 | 0.19 | 0.00 | 78 | 1022.4 |
| 20260505022904 | 59 | 263 | 4.3 | 10.4 | 0.00 | 0.19 | 0.00 | 77 | 1022.5 |
| 20260505022404 | 60 | 271 | 7.0 | 10.4 | 0.00 | 0.19 | 0.00 | 76 | 1022.5 |
| 20260505021904 | 60 | 283 | 6.1 | 10.4 | 0.00 | 0.19 | 0.00 | 75 | 1022.5 |
| 20260505021404 | 60 | 288 | 7.8 | 10.4 | 0.00 | 0.19 | 0.00 | 75 | 1022.5 |
| 20260505020905 | 60 | 265 | 3.5 | 7.0 | 0.00 | 0.19 | 0.00 | 75 | 1022.5 |
| 20260505020404 | 59 | 310 | 3.5 | 6.1 | 0.00 | 0.19 | 0.00 | 75 | 1022.5 |
| 20260505015904 | 59 | 297 | 2.6 | 6.1 | 0.00 | 0.19 | 0.00 | 75 | 1022.6 |
| 20260505015404 | 59 | 269 | 2.6 | 7.8 | 0.00 | 0.19 | 0.00 | 75 | 1022.7 |
| 20260505014904 | 59 | 279 | 5.2 | 11.3 | 0.00 | 0.19 | 0.00 | 76 | 1022.7 |
| 20260505014404 | 59 | 278 | 2.6 | 6.1 | 0.00 | 0.19 | 0.00 | 77 | 1022.7 |
| 20260505013904 | 59 | 278 | 3.5 | 6.1 | 0.00 | 0.19 | 0.00 | 76 | 1022.8 |
| 20260505013404 | 59 | 255 | 1.7 | 4.3 | 0.00 | 0.19 | 0.00 | 76 | 1022.9 |
| 20260505012904 | 59 | 276 | 4.3 | 5.2 | 0.00 | 0.19 | 0.00 | 76 | 1022.8 |
| 20260505012404 | 59 | 288 | 4.3 | 7.0 | 0.00 | 0.19 | 0.00 | 77 | 1022.8 |
| 20260505011904 | 59 | 263 | 2.6 | 7.0 | 0.00 | 0.19 | 0.00 | 77 | 1022.8 |
| 20260505011404 | 59 | 270 | 4.3 | 7.0 | 0.00 | 0.20 | 0.00 | 76 | 1022.7 |
| 20260505010904 | 58 | 274 | 2.6 | 4.3 | 0.00 | 0.23 | 0.00 | 77 | 1022.7 |
| 20260505010404 | 58 | 266 | 2.6 | 4.3 | 0.00 | 0.25 | 0.00 | 78 | 1022.6 |
| 20260505005904 | 58 | 261 | 2.6 | 4.3 | 0.00 | 0.25 | 0.00 | 77 | 1022.6 |
| 20260505005404 | 58 | 260 | 2.6 | 4.3 | 0.00 | 0.25 | 0.00 | 79 | 1022.6 |
| 20260505004904 | 57 | 258 | 2.6 | 4.3 | 0.00 | 0.25 | 0.00 | 79 | 1022.6 |
| 20260505004404 | 57 | 263 | 1.7 | 2.6 | 0.00 | 0.25 | 0.00 | 80 | 1022.6 |
| 20260505003904 | 57 | 257 | 1.7 | 2.6 | 0.00 | 0.25 | 0.00 | 81 | 1022.6 |
| 20260505003404 | 57 | 274 | 1.7 | 4.3 | 0.00 | 0.25 | 0.00 | 82 | 1022.6 |
| 20260505002904 | 56 | 278 | 0.9 | 2.6 | 0.00 | 0.26 | 0.00 | 83 | 1022.5 |
| 20260505002404 | 56 | 277 | 0.9 | 4.3 | 0.00 | 0.26 | 0.00 | 84 | 1022.6 |
| 20260505001904 | 56 | 278 | 1.7 | 5.2 | 0.00 | 0.26 | 0.00 | 84 | 1022.6 |
| 20260505001404 | 56 | 245 | 1.7 | 2.6 | 0.00 | 0.26 | 0.00 | 85 | 1022.6 |
| 20260505000904 | 55 | 237 | 1.7 | 2.6 | 0.00 | 0.27 | 0.00 | 85 | 1022.6 |
| 20260505000405 | 55 | 233 | 1.7 | 2.6 | 0.00 | 0.28 | 0.00 | 86 | 1022.6 |
| 20260504235904 | 55 | 232 | 2.6 | 4.3 | 0.00 | 0.28 | 0.00 | 86 | 1022.6 |
| 20260504235404 | 55 | 221 | 2.6 | 4.3 | 0.00 | 0.28 | 0.00 | 87 | 1022.6 |
| 20260504234904 | 55 | 209 | 2.6 | 4.3 | 0.00 | 0.28 | 0.00 | 87 | 1022.6 |
| 20260504234405 | 55 | 233 | 1.7 | 4.3 | 0.00 | 0.28 | 0.00 | 88 | 1022.6 |
| 20260504233904 | 55 | 229 | 2.6 | 4.3 | 0.00 | 0.28 | 0.00 | 88 | 1022.5 |
| 20260504233404 | 55 | 240 | 1.7 | 5.2 | 0.00 | 0.28 | 0.00 | 88 | 1022.5 |
| 20260504232904 | 54 | 235 | 2.6 | 6.1 | 0.00 | 0.28 | 0.28 | 88 | 1022.4 |
| 20260504232404 | 54 | 267 | 4.3 | 6.1 | 0.00 | 0.28 | 0.28 | 89 | 1022.4 |
| 20260504231904 | 54 | 233 | 0.9 | 4.3 | 0.00 | 0.28 | 0.28 | 89 | 1022.4 |
| 20260504231404 | 54 | 248 | 1.7 | 2.6 | 0.00 | 0.28 | 0.28 | 90 | 1022.3 |
| 20260504230904 | 54 | 247 | 3.5 | 6.1 | 0.00 | 0.28 | 0.28 | 90 | 1022.3 |
| 20260504230404 | 54 | 270 | 1.7 | 4.3 | 0.00 | 0.28 | 0.28 | 92 | 1022.2 |
| 20260504225905 | 54 | 270 | 2.6 | 4.3 | 0.00 | 0.28 | 0.28 | 90 | 1022.2 |
| 20260504160405 | 51 | 320 | 2.6 | 4.3 | 0.00 | 0.28 | 0.27 | 89 | 1018.8 |
| 20260504150905 | 52 | 306 | 4.3 | 7.0 | 0.00 | 0.28 | 0.27 | 89 | 1018.4 |
| 20260504150405 | 52 | 308 | 4.3 | 7.0 | 0.00 | 0.28 | 0.27 | 89 | 1018.4 |
| 20260504140905 | 52 | 316 | 4.3 | 6.1 | 0.00 | 0.28 | 0.27 | 89 | 1018.2 |
| 20260504140405 | 52 | 320 | 4.3 | 7.0 | 0.00 | 0.28 | 0.27 | 89 | 1018.2 |
| 20260504130405 | 51 | 316 | 2.6 | 4.3 | 0.00 | 0.28 | 0.27 | 88 | 1018.0 |
| 20260504110405 | 52 | 320 | 5.2 | 7.8 | 0.00 | 0.28 | 0.27 | 87 | 1016.7 |
| 20260504100405 | 54 | 307 | 2.6 | 6.1 | 0.00 | 0.28 | 0.27 | 85 | 1016.0 |
| 20260504081905 | 56 | 273 | 5.2 | 11.3 | 0.01 | 0.28 | 0.27 | 86 | 1014.4 |
| 20260504081405 | 56 | 279 | 5.2 | 10.4 | 0.02 | 0.28 | 0.27 | 86 | 1014.2 |
| 20260504080905 | 56 | 282 | 6.1 | 10.4 | 0.03 | 0.28 | 0.27 | 86 | 1014.1 |
| 20260504080404 | 56 | 282 | 6.1 | 10.4 | 0.04 | 0.28 | 0.27 | 86 | 1014.1 |
| 20260504070405 | 59 | 237 | 7.0 | 13.9 | 0.02 | 0.24 | 0.23 | 85 | 1013.5 |